WEN3434 CYVR-CYLW

Flight info

Callsign WEN3434
Flight time 0h 44m
Altitude 19000
Route JANEK SEKAB SEKAB5
Aircraft DH8D/M-SDE2E3FGRY/H

Departure

Time 2026-05-04 00:46
Airport Vancouver International Airport (CYVR)

Arrival

Time 2026-05-04 01:30
Airport Kelowna International Airport (CYLW)
Time Latitude Longitude Altitude Speed Heading
2026-05-04 00:21 49.19105 -123.17909 11 ft 0 kts 63°
2026-05-04 00:37 49.19106 -123.17909 10 ft 0 kts 63°
2026-05-04 00:38 49.19104 -123.17915 10 ft 2 kts 63°
2026-05-04 00:38 49.19097 -123.17936 10 ft 2 kts 63°
2026-05-04 00:39 49.19090 -123.17956 10 ft 2 kts 63°
2026-05-04 00:39 49.19083 -123.17976 10 ft 2 kts 63°
2026-05-04 00:39 49.19076 -123.17996 10 ft 2 kts 63°
2026-05-04 00:39 49.19070 -123.18017 10 ft 2 kts 86°
2026-05-04 00:40 49.19074 -123.18038 10 ft 2 kts 128°
2026-05-04 00:40 49.19086 -123.18050 10 ft 2 kts 165°
2026-05-04 00:40 49.19091 -123.18053 10 ft 0 kts 165°
2026-05-04 00:40 49.19092 -123.18053 10 ft 0 kts 165°
2026-05-04 00:42 49.19082 -123.18049 10 ft 5 kts 165°
2026-05-04 00:42 49.19018 -123.18049 10 ft 13 kts 191°
2026-05-04 00:43 49.18917 -123.18058 10 ft 16 kts 137°
2026-05-04 00:43 49.18889 -123.17864 10 ft 22 kts 99°
2026-05-04 00:43 49.18860 -123.17600 10 ft 27 kts 99°
2026-05-04 00:43 49.18825 -123.17300 10 ft 29 kts 100°
2026-05-04 00:44 49.18790 -123.16991 10 ft 29 kts 99°
2026-05-04 00:44 49.18757 -123.16695 10 ft 26 kts 99°
2026-05-04 00:44 49.18728 -123.16441 10 ft 22 kts 100°
2026-05-04 00:44 49.18672 -123.16248 10 ft 15 kts 136°
2026-05-04 00:45 49.18636 -123.16199 10 ft 0 kts 154°
2026-05-04 00:45 49.18628 -123.16194 10 ft 4 kts 160°
2026-05-04 00:45 49.18554 -123.16209 10 ft 16 kts 192°
2026-05-04 00:45 49.18495 -123.16270 10 ft 11 kts 275°
2026-05-04 00:46 49.18549 -123.16733 11 ft 87 kts 280°
2026-05-04 00:46 49.18697 -123.17992 25 ft 146 kts 278°
2026-05-04 00:46 49.18867 -123.19553 488 ft 155 kts 282°
2026-05-04 00:46 49.19073 -123.21094 1255 ft 148 kts 292°
2026-05-04 00:47 49.19766 -123.22299 1600 ft 165 kts 338°
2026-05-04 00:47 49.20926 -123.22370 2005 ft 176 kts 19°
2026-05-04 00:47 49.21898 -123.21320 2604 ft 174 kts 49°
2026-05-04 00:47 49.22649 -123.19838 3071 ft 184 kts 50°
2026-05-04 00:48 49.23504 -123.18315 3472 ft 193 kts 47°
2026-05-04 00:48 49.24439 -123.16853 4074 ft 193 kts 43°
2026-05-04 00:48 49.25410 -123.15450 4697 ft 193 kts 43°
2026-05-04 00:48 49.26380 -123.14030 5252 ft 196 kts 44°
2026-05-04 00:49 49.27360 -123.12570 5858 ft 196 kts 44°
2026-05-04 00:49 49.27995 -123.11613 6234 ft 196 kts 45°
2026-05-04 00:49 49.29290 -123.09646 6990 ft 199 kts 45°
2026-05-04 00:49 49.29936 -123.08656 7347 ft 199 kts 45°
2026-05-04 00:50 49.30907 -123.07161 7868 ft 200 kts 45°
2026-05-04 00:50 49.32223 -123.05125 8568 ft 204 kts 45°
2026-05-04 00:50 49.33213 -123.03589 9091 ft 205 kts 45°
2026-05-04 00:50 49.34210 -123.02037 9562 ft 207 kts 46°
2026-05-04 00:51 49.35218 -123.00464 10081 ft 209 kts 45°
2026-05-04 00:51 49.35892 -122.99412 10392 ft 207 kts 45°
2026-05-04 00:51 49.37244 -122.97304 10812 ft 212 kts 45°
2026-05-04 00:51 49.37926 -122.96236 11097 ft 211 kts 45°
2026-05-04 00:52 49.39304 -122.94078 11550 ft 212 kts 45°
2026-05-04 00:52 49.40339 -122.92453 11915 ft 213 kts 45°
2026-05-04 00:52 49.41017 -122.91388 12184 ft 213 kts 45°
2026-05-04 00:52 49.42058 -122.89751 12525 ft 215 kts 45°
2026-05-04 00:53 49.43456 -122.87550 13062 ft 215 kts 45°
2026-05-04 00:53 49.44496 -122.85913 13407 ft 218 kts 44°
2026-05-04 00:53 49.45201 -122.84802 13679 ft 218 kts 44°
2026-05-04 00:53 49.46254 -122.83141 14088 ft 218 kts 44°
2026-05-04 00:54 49.47670 -122.80904 14611 ft 219 kts 44°
2026-05-04 00:54 49.48382 -122.79779 14851 ft 221 kts 44°
2026-05-04 00:54 49.49810 -122.77522 15322 ft 223 kts 44°
2026-05-04 00:54 49.50888 -122.75818 15680 ft 224 kts 44°
2026-05-04 00:55 49.51989 -122.74075 16000 ft 226 kts 44°
2026-05-04 00:55 49.53083 -122.72342 16320 ft 226 kts 44°
2026-05-04 00:55 49.53807 -122.71195 16518 ft 227 kts 44°
2026-05-04 00:55 49.55287 -122.68849 16880 ft 228 kts 43°
2026-05-04 00:56 49.56227 -122.67358 17101 ft 230 kts 43°
2026-05-04 00:56 49.57344 -122.65584 17361 ft 231 kts 43°
2026-05-04 00:56 49.58087 -122.64403 17509 ft 233 kts 43°
2026-05-04 00:56 49.59598 -122.62001 17839 ft 234 kts 43°
2026-05-04 00:57 49.60722 -122.60213 18083 ft 235 kts 43°
2026-05-04 00:57 49.61862 -122.58398 18340 ft 235 kts 43°
2026-05-04 00:57 49.62616 -122.57194 18505 ft 235 kts 43°
2026-05-04 00:57 49.64140 -122.54765 18846 ft 236 kts 43°
2026-05-04 00:58 49.64902 -122.53548 18985 ft 238 kts 43°
2026-05-04 00:58 49.66463 -122.51058 19074 ft 248 kts 43°
2026-05-04 00:58 49.67694 -122.49094 19065 ft 258 kts 43°
2026-05-04 00:58 49.68883 -122.46993 19036 ft 268 kts 47°
2026-05-04 00:59 49.69672 -122.45480 19042 ft 274 kts 48°
2026-05-04 00:59 49.70882 -122.43147 19027 ft 282 kts 48°
2026-05-04 00:59 49.72541 -122.39960 19009 ft 290 kts 48°
2026-05-04 00:59 49.73824 -122.37502 19009 ft 296 kts 47°
2026-05-04 01:00 49.75128 -122.35005 19004 ft 300 kts 48°
2026-05-04 01:00 49.76000 -122.33338 18994 ft 303 kts 49°
2026-05-04 01:00 49.77327 -122.30798 18980 ft 306 kts 48°
2026-05-04 01:00 49.79095 -122.27413 18986 ft 307 kts 48°
2026-05-04 01:01 49.80009 -122.25663 19002 ft 307 kts 48°
2026-05-04 01:01 49.81348 -122.23102 19012 ft 310 kts 48°
2026-05-04 01:01 49.82715 -122.20483 19029 ft 311 kts 48°
2026-05-04 01:01 49.84517 -122.17031 19040 ft 313 kts 48°
2026-05-04 01:02 49.85891 -122.14394 19042 ft 313 kts 49°
2026-05-04 01:02 49.87252 -122.11781 19045 ft 314 kts 48°
2026-05-04 01:02 49.88616 -122.09160 19051 ft 313 kts 48°
2026-05-04 01:02 49.89540 -122.07381 19061 ft 313 kts 48°
2026-05-04 01:03 49.91358 -122.03880 19062 ft 313 kts 48°
2026-05-04 01:03 49.92273 -122.02117 19048 ft 314 kts 48°
2026-05-04 01:03 49.93639 -121.99482 19048 ft 314 kts 48°
2026-05-04 01:03 49.95461 -121.95966 19043 ft 315 kts 48°
2026-05-04 01:04 49.96363 -121.94221 19045 ft 315 kts 48°
2026-05-04 01:04 49.98203 -121.90661 19034 ft 315 kts 49°
2026-05-04 01:04 49.99556 -121.88040 19031 ft 314 kts 48°
2026-05-04 01:04 50.00471 -121.86268 19022 ft 314 kts 48°
2026-05-04 01:05 50.02296 -121.82724 19030 ft 314 kts 49°
2026-05-04 01:05 50.03669 -121.80057 19035 ft 314 kts 48°
2026-05-04 01:05 50.04576 -121.78294 19036 ft 314 kts 48°
2026-05-04 01:05 50.05925 -121.75669 19047 ft 314 kts 48°
2026-05-04 01:06 50.07291 -121.73006 19037 ft 314 kts 48°
2026-05-04 01:06 50.08473 -121.70154 19000 ft 320 kts 65°
2026-05-04 01:06 50.08814 -121.66718 19042 ft 324 kts 85°
2026-05-04 01:06 50.08824 -121.62049 19012 ft 325 kts 86°
2026-05-04 01:07 50.08816 -121.58556 19001 ft 325 kts 86°
2026-05-04 01:07 50.08808 -121.55027 18980 ft 325 kts 86°
2026-05-04 01:07 50.08801 -121.51495 18965 ft 325 kts 86°
2026-05-04 01:07 50.08796 -121.49161 18959 ft 326 kts 86°
2026-05-04 01:08 50.08789 -121.45624 18984 ft 326 kts 86°
2026-05-04 01:08 50.08780 -121.40950 19024 ft 326 kts 86°
2026-05-04 01:08 50.08772 -121.37428 19038 ft 326 kts 86°
2026-05-04 01:08 50.08767 -121.35085 19047 ft 326 kts 86°
2026-05-04 01:09 50.08758 -121.31531 19063 ft 326 kts 87°
2026-05-04 01:09 50.08745 -121.26816 19082 ft 326 kts 87°
2026-05-04 01:09 50.08738 -121.24509 19092 ft 326 kts 87°
2026-05-04 01:09 50.08727 -121.20958 19077 ft 327 kts 87°
2026-05-04 01:10 50.08709 -121.16254 19064 ft 326 kts 87°
2026-05-04 01:10 50.08700 -121.13917 19068 ft 326 kts 87°
2026-05-04 01:10 50.08686 -121.10398 19053 ft 327 kts 87°
2026-05-04 01:10 50.08666 -121.05695 19048 ft 327 kts 87°
2026-05-04 01:11 50.08654 -121.03327 19038 ft 327 kts 87°
2026-05-04 01:11 50.08637 -120.99770 19030 ft 327 kts 87°
2026-05-04 01:11 50.08612 -120.95042 19030 ft 328 kts 87°
2026-05-04 01:11 50.08591 -120.91510 19032 ft 328 kts 87°
2026-05-04 01:12 50.08571 -120.88002 19034 ft 328 kts 87°
2026-05-04 01:12 50.08556 -120.85625 19039 ft 328 kts 87°
2026-05-04 01:12 50.08525 -120.80903 19048 ft 328 kts 87°
2026-05-04 01:12 50.08509 -120.78537 19048 ft 328 kts 87°
2026-05-04 01:13 50.08476 -120.73817 19049 ft 328 kts 87°
2026-05-04 01:13 50.08458 -120.71453 19043 ft 328 kts 87°
2026-05-04 01:13 50.08421 -120.66763 19047 ft 328 kts 87°
2026-05-04 01:13 50.08392 -120.63185 19042 ft 328 kts 87°
2026-05-04 01:14 50.08373 -120.60832 19044 ft 329 kts 87°
2026-05-04 01:14 50.08332 -120.56104 19039 ft 329 kts 87°
2026-05-04 01:14 50.08300 -120.52554 19041 ft 329 kts 87°
2026-05-04 01:14 50.08277 -120.50160 19034 ft 329 kts 87°
2026-05-04 01:15 50.08244 -120.46590 18928 ft 333 kts 87°
2026-05-04 01:15 50.08197 -120.41702 18419 ft 347 kts 87°
2026-05-04 01:15 50.08159 -120.37882 17951 ft 357 kts 87°
2026-05-04 01:15 50.08118 -120.33988 17501 ft 360 kts 88°
2026-05-04 01:16 50.08076 -120.30235 17061 ft 362 kts 89°
2026-05-04 01:16 50.08046 -120.27531 16745 ft 362 kts 88°
2026-05-04 01:16 50.07985 -120.22285 16077 ft 365 kts 88°
2026-05-04 01:16 50.07937 -120.18332 15570 ft 363 kts 88°
2026-05-04 01:17 50.07890 -120.14465 15061 ft 354 kts 88°
2026-05-04 01:17 50.07843 -120.10680 14575 ft 346 kts 88°
2026-05-04 01:17 50.07812 -120.08229 14262 ft 337 kts 88°
2026-05-04 01:17 50.07752 -120.03498 13656 ft 319 kts 87°
2026-05-04 01:18 50.07708 -120.00146 13230 ft 308 kts 87°
2026-05-04 01:18 50.07664 -119.96886 12822 ft 297 kts 87°
2026-05-04 01:18 50.07621 -119.93728 12424 ft 288 kts 87°
2026-05-04 01:18 50.07593 -119.91662 12166 ft 282 kts 86°
2026-05-04 01:19 50.07551 -119.88665 11784 ft 274 kts 86°
2026-05-04 01:19 50.07496 -119.84811 11302 ft 264 kts 86°
2026-05-04 01:19 50.07468 -119.82910 11062 ft 259 kts 86°
2026-05-04 01:19 50.07428 -119.80162 10715 ft 252 kts 87°
2026-05-04 01:20 50.07388 -119.77492 10375 ft 244 kts 86°
2026-05-04 01:20 50.07319 -119.74882 9994 ft 244 kts 94°
2026-05-04 01:20 50.06138 -119.71882 9623 ft 255 kts 147°
2026-05-04 01:20 50.05075 -119.71156 9532 ft 254 kts 164°
2026-05-04 01:21 50.03340 -119.70431 9372 ft 258 kts 167°
2026-05-04 01:21 50.01005 -119.69511 9181 ft 263 kts 167°
2026-05-04 01:21 49.99801 -119.69040 9078 ft 266 kts 167°
2026-05-04 01:21 49.97420 -119.68102 8855 ft 263 kts 166°
2026-05-04 01:22 49.95645 -119.67478 8708 ft 259 kts 171°
2026-05-04 01:22 49.94462 -119.67171 8615 ft 257 kts 172°
2026-05-04 01:22 49.92707 -119.66739 8479 ft 254 kts 172°
2026-05-04 01:22 49.90419 -119.66177 8288 ft 250 kts 172°
2026-05-04 01:23 49.89286 -119.65897 8198 ft 248 kts 172°
2026-05-04 01:23 49.87011 -119.65337 7930 ft 250 kts 172°
2026-05-04 01:23 49.85286 -119.64912 7676 ft 255 kts 172°
2026-05-04 01:23 49.83507 -119.64473 7407 ft 258 kts 172°
2026-05-04 01:24 49.82341 -119.64127 7224 ft 257 kts 165°
2026-05-04 01:24 49.80771 -119.62964 6959 ft 243 kts 141°
2026-05-04 01:24 49.79628 -119.61159 6761 ft 234 kts 122°
2026-05-04 01:24 49.78903 -119.58902 6519 ft 237 kts 102°
2026-05-04 01:25 49.78690 -119.56364 6282 ft 238 kts 83°
2026-05-04 01:25 49.79005 -119.53899 6066 ft 238 kts 68°
2026-05-04 01:25 49.79695 -119.50603 5679 ft 238 kts 68°
2026-05-04 01:25 49.80185 -119.48212 5365 ft 231 kts 68°
2026-05-04 01:26 49.80661 -119.45894 5070 ft 225 kts 68°
2026-05-04 01:26 49.80986 -119.44357 4836 ft 222 kts 68°
2026-05-04 01:26 49.81473 -119.42132 4517 ft 218 kts 67°
2026-05-04 01:26 49.82027 -119.40014 4148 ft 208 kts 58°
2026-05-04 01:27 49.82942 -119.38419 3800 ft 186 kts 30°
2026-05-04 01:27 49.84077 -119.37678 3499 ft 174 kts 12°
2026-05-04 01:27 49.85229 -119.37363 3238 ft 162 kts
2026-05-04 01:27 49.86668 -119.37122 2971 ft 149 kts
2026-05-04 01:28 49.87667 -119.36996 2856 ft 143 kts
2026-05-04 01:28 49.88635 -119.36918 2676 ft 137 kts 359°
2026-05-04 01:28 49.89252 -119.36922 2519 ft 132 kts 356°
2026-05-04 01:28 49.90156 -119.36994 2285 ft 129 kts 355°
2026-05-04 01:29 49.91071 -119.37125 2173 ft 136 kts 353°
2026-05-04 01:29 49.92291 -119.37277 1916 ft 128 kts 352°
2026-05-04 01:29 49.92876 -119.37360 1766 ft 126 kts 350°
2026-05-04 01:29 49.93726 -119.37520 1609 ft 122 kts 353°
2026-05-04 01:30 49.94578 -119.37636 1471 ft 125 kts 353°
2026-05-04 01:30 49.95403 -119.37749 1443 ft 102 kts 354°
2026-05-04 01:30 49.95947 -119.37824 1455 ft 60 kts 355°
2026-05-04 01:30 49.96370 -119.37879 1468 ft 35 kts 355°
2026-05-04 01:31 49.96514 -119.37901 1472 ft 22 kts 354°
2026-05-04 01:31 49.96607 -119.37959 1473 ft 13 kts 283°
2026-05-04 01:31 49.96569 -119.38055 1472 ft 12 kts 174°
2026-05-04 01:31 49.96435 -119.38038 1469 ft 16 kts 174°
2026-05-04 01:32 49.96357 -119.38026 1467 ft 17 kts 174°
2026-05-04 01:32 49.96228 -119.38008 1463 ft 19 kts 175°
2026-05-04 01:32 49.96081 -119.37987 1459 ft 21 kts 174°
2026-05-04 01:32 49.95925 -119.37965 1454 ft 24 kts 174°
2026-05-04 01:33 49.95721 -119.37934 1449 ft 20 kts 174°
2026-05-04 01:33 49.95627 -119.37921 1447 ft 20 kts 174°
2026-05-04 01:33 49.95482 -119.37901 1444 ft 21 kts 174°
2026-05-04 01:33 49.95334 -119.37882 1441 ft 20 kts 174°
2026-05-04 01:34 49.95207 -119.37864 1439 ft 15 kts 174°
2026-05-04 01:34 49.95155 -119.37922 1438 ft 5 kts 302°
2026-05-04 01:34 49.95177 -119.37940 1438 ft 6 kts 348°
2026-05-04 01:34 49.95235 -119.37949 1439 ft 8 kts 355°
2026-05-04 01:35 49.95266 -119.37962 1440 ft 4 kts 311°
2026-05-04 01:35 49.95279 -119.38016 1440 ft 4 kts 287°
2026-05-04 01:35 49.95283 -119.38032 1440 ft 0 kts 288°